STARLINK-11363, 62012

Orbit data source: Space-Track

STARLINK-11363, 62012 is a payload satellite owned by SpaceX/Seattle (US) in LEO that was launched on Mon, 18 Nov 2024 UTC via an FALCON 9 launch vehicle from the Air Force Western Test Range (AFWTR). Payloads include a variety of satellites, spacecraft, and rockets equipped with specific instruments for various scientific and technological missions. These include communications satellites like Starlink; space stations such as the ISS; scientific satellites like the Hubble; Earth observation satellites from companies like Planet Labs, Umbra, and HawkEye 360; GPS; miniature CubeSats for education and research; and military/defense satellites.

Not visible in the next 10 days
STARLINK-11363 details
Identifier
62012, 2024-213E
Orbit
LEO
Last TLE update14 hours ago
Origin
Flag of USSpaceX/Seattle (US)
ManufacturerSpaceX/Seattle
MissionOperational spacecraft
Bus & MotorSTARLINK V2M, Unknown motor
Mass730 kg wet, ~700 kg dry
Launch date (UTC)
2024-11-18 (1 month ago)
Launch vehicle
FALCON 9
Launch site
Air Force Western Test Range (AFWTR)
Object type
Payload
Rocket body
Debris
Shape & HBRUnknown
Radar Cross SectionLarge (>1 m²)

Expand to show TLE details & history

TLE from 14 hours ago
0 STARLINK-11363
1 62012U 24213E   24360.83747238 -.00002305  00000-0 -10102-4 0  9990
2 62012  53.1556  47.2075 0001072  71.3502 288.7635 15.76700946  6966
Epoch: 2024-12-25T20:05Z
Definitive object data (Epoch: 2024-12-25T20:05:57.613Z)
Latitude-0.00005°
Longitude10.89192°
Altitude340.481 km
Speed7.706 km/s
True Right ascension03h 08m 49s
True Declination0° 00' 00"
Sunlit
Object was in full shadow at TLE epoch
Visualization TLE readout
Latitude8.91693°
Longitude14.75295°
Altitude339.66 km
Speed7.707 km/s
Apparent Right ascension00h 54m 02s
Apparent Declination-20° 43' 32"
Sunlit
Object is in full shadow
Visualization observer readout
Local Sidereal Time09:11:21
Azimuth274.956° WNW
Elevation-39.168°
Doppler factor1
Orbital elements
Apogee altitude340.778 km
Perigee altitude339.337 km
Semi-major axis6,718.194 km
Eccentricity0.0001072
Inclination53.1556°
RAAN47.2075°
Arg. of periapsis71.3502°
True anomaly288.75187°
Mean anomaly288.7635°
Eccentric anomaly288.75768°
Mean motion3.94153 °/min
BSTAR-0.000010102
Orbital period91.34 mins
Loading maneuver chart data...
Loading historical data...
Loading historical data...
Loading historical data...
Loading historical data...
Loading historical data...
Loading historical data...
Loading historical data...

STARLINK-11363 Visibility forecast

Observer location: undefined°, undefined

STARLINK-11363 is not visible in the next 10 days
Span
Click to sort rows by Start time (UTC) header in descending order
Start Az.
Max El. time (UTC)
Max El. Az.
Max El.
End time (UTC)
End Az.
|